Location: Lombard
(41.8800°N, 88.0078°W)
Time: 02:33:22
(UTC-06:00)

BlueWalker 3 - Pass Details

Date: 23 January 2026
Orbit: 450 x 461 km, 53.2° (Epoch: 11 February)

Event Time Altitude Azimuth Distance (km) Brightness Sun altitude
Rises 17:59:31 0° 239° (WSW) 2,447 7.1 -11.9°
Reaches altitude 10° 18:01:40 10° 243° (WSW) 1,577 5.9 -12.3°
Maximum altitude 18:05:11 61° 325° (NW) 513 2.0 -12.9°
Enters shadow 18:07:34 19° 42° (NE) 1,136 3.2 -13.4°
